BLY71R LFBE-EGGP

Flight info

Callsign BLY71R
Flight time 1h 32m
Altitude 36000
Route VELIN DCT UVELI DCT CNA DCT MANAK UT183 BAGAD DCT MUREL DCT NOZHU/N0435F370 DCT SHIRI DCT TOJAQ DCT EPACE DCT ACCOP DCT MOCQO P16 PEPZE
Aircraft A320/M-SDE3FGHIRWY/LB1

Departure

Time 2026-04-25 11:27
Airport Bergerac Dordogne-Périgord airport (LFBE)

Arrival

Time 2026-04-25 13:00
Airport Liverpool John Lennon Airport (EGGP)
Time Latitude Longitude Altitude Speed Heading
2026-04-25 10:58 44.82275 0.51553 177 ft 0 kts 309°
2026-04-25 11:22 44.82277 0.51550 177 ft 2 kts 311°
2026-04-25 11:23 44.82299 0.51567 177 ft 8 kts 63°
2026-04-25 11:23 44.82300 0.51680 177 ft 14 kts 94°
2026-04-25 11:23 44.82292 0.51832 177 ft 17 kts 94°
2026-04-25 11:23 44.82283 0.52000 177 ft 10 kts 92°
2026-04-25 11:24 44.82339 0.52042 177 ft 11 kts
2026-04-25 11:24 44.82420 0.52057 178 ft 11 kts 25°
2026-04-25 11:24 44.82433 0.52168 178 ft 14 kts 94°
2026-04-25 11:24 44.82424 0.52326 178 ft 18 kts 95°
2026-04-25 11:25 44.82411 0.52517 177 ft 21 kts 95°
2026-04-25 11:25 44.82400 0.52734 176 ft 22 kts 94°
2026-04-25 11:25 44.82393 0.52951 176 ft 20 kts 92°
2026-04-25 11:25 44.82412 0.53106 177 ft 14 kts 62°
2026-04-25 11:26 44.82431 0.53227 177 ft 11 kts 112°
2026-04-25 11:26 44.82382 0.53205 177 ft 10 kts 264°
2026-04-25 11:26 44.82383 0.53168 177 ft 0 kts 274°
2026-04-25 11:26 44.82398 0.52871 176 ft 70 kts 274°
2026-04-25 11:27 44.82452 0.51867 179 ft 132 kts 274°
2026-04-25 11:27 44.82526 0.50421 575 ft 151 kts 274°
2026-04-25 11:27 44.82603 0.48932 1287 ft 154 kts 272°
2026-04-25 11:27 44.82656 0.47941 1777 ft 154 kts 273°
2026-04-25 11:28 44.82766 0.45869 2346 ft 170 kts 273°
2026-04-25 11:28 44.82859 0.44107 2573 ft 192 kts 273°
2026-04-25 11:28 44.82995 0.42120 2781 ft 217 kts 282°
2026-04-25 11:28 44.83789 0.40209 3094 ft 243 kts 313°
2026-04-25 11:29 44.84992 0.38394 3658 ft 259 kts 310°
2026-04-25 11:29 44.86194 0.36467 4479 ft 264 kts 309°
2026-04-25 11:29 44.87388 0.34471 5291 ft 269 kts 307°
2026-04-25 11:29 44.88580 0.32412 6145 ft 273 kts 306°
2026-04-25 11:30 44.89770 0.30316 6986 ft 275 kts 306°
2026-04-25 11:30 44.90964 0.28189 7788 ft 278 kts 306°
2026-04-25 11:30 44.92170 0.26033 8596 ft 281 kts 306°
2026-04-25 11:30 44.93381 0.23859 9416 ft 283 kts 306°
2026-04-25 11:31 44.94605 0.21662 10196 ft 286 kts 306°
2026-04-25 11:31 44.95857 0.19412 10635 ft 301 kts 306°
2026-04-25 11:31 44.97240 0.17047 10817 ft 324 kts 313°
2026-04-25 11:31 44.99012 0.14975 11288 ft 335 kts 325°
2026-04-25 11:32 45.01072 0.13378 11917 ft 341 kts 332°
2026-04-25 11:32 45.03203 0.11863 12581 ft 344 kts 332°
2026-04-25 11:32 45.05350 0.10343 13257 ft 347 kts 332°
2026-04-25 11:32 45.07537 0.08838 13911 ft 351 kts 332°
2026-04-25 11:33 45.09745 0.07346 14478 ft 354 kts 333°
2026-04-25 11:33 45.11982 0.05847 15043 ft 357 kts 333°
2026-04-25 11:33 45.14235 0.04337 15605 ft 360 kts 333°
2026-04-25 11:33 45.16499 0.02813 16162 ft 363 kts 333°
2026-04-25 11:34 45.18791 0.01261 16713 ft 366 kts 333°
2026-04-25 11:34 45.21095 -0.00308 17282 ft 369 kts 333°
2026-04-25 11:34 45.23413 -0.01890 17842 ft 372 kts 333°
2026-04-25 11:34 45.25755 -0.03486 18398 ft 374 kts 333°
2026-04-25 11:35 45.28103 -0.05090 18890 ft 377 kts 333°
2026-04-25 11:35 45.30485 -0.06722 19388 ft 380 kts 333°
2026-04-25 11:35 45.32878 -0.08364 19876 ft 383 kts 333°
2026-04-25 11:35 45.35287 -0.10015 20375 ft 386 kts 333°
2026-04-25 11:36 45.37721 -0.11683 20859 ft 389 kts 333°
2026-04-25 11:36 45.40171 -0.13363 21312 ft 392 kts 333°
2026-04-25 11:36 45.42636 -0.15053 21760 ft 395 kts 333°
2026-04-25 11:36 45.45121 -0.16761 22199 ft 398 kts 333°
2026-04-25 11:37 45.47620 -0.18487 22641 ft 401 kts 333°
2026-04-25 11:37 45.50139 -0.20228 23076 ft 403 kts 333°
2026-04-25 11:37 45.52673 -0.21979 23510 ft 406 kts 333°
2026-04-25 11:37 45.55225 -0.23740 23903 ft 409 kts 333°
2026-04-25 11:38 45.57799 -0.25517 24269 ft 412 kts 332°
2026-04-25 11:38 45.60345 -0.27280 24640 ft 414 kts 332°
2026-04-25 11:38 45.62979 -0.29102 25009 ft 416 kts 332°
2026-04-25 11:38 45.65566 -0.30985 25368 ft 417 kts 327°
2026-04-25 11:39 45.67902 -0.33338 25716 ft 417 kts 319°
2026-04-25 11:39 45.70215 -0.35957 26087 ft 420 kts 320°
2026-04-25 11:39 45.72481 -0.38515 26436 ft 422 kts 320°
2026-04-25 11:39 45.74792 -0.41119 26791 ft 424 kts 320°
2026-04-25 11:40 45.77113 -0.43734 27148 ft 426 kts 319°
2026-04-25 11:40 45.79445 -0.46366 27471 ft 428 kts 319°
2026-04-25 11:40 45.81787 -0.49013 27809 ft 430 kts 319°
2026-04-25 11:40 45.84146 -0.51677 28157 ft 432 kts 319°
2026-04-25 11:41 45.86513 -0.54354 28492 ft 435 kts 319°
2026-04-25 11:41 45.88893 -0.57051 28846 ft 437 kts 319°
2026-04-25 11:41 45.91281 -0.59766 29198 ft 439 kts 319°
2026-04-25 11:41 45.93681 -0.62498 29530 ft 441 kts 319°
2026-04-25 11:42 45.96090 -0.65244 29863 ft 443 kts 319°
2026-04-25 11:42 45.98501 -0.67996 30291 ft 443 kts 319°
2026-04-25 11:42 46.00908 -0.70745 30708 ft 441 kts 318°
2026-04-25 11:42 46.03309 -0.73487 31139 ft 440 kts 318°
2026-04-25 11:43 46.05701 -0.76222 31576 ft 438 kts 318°
2026-04-25 11:43 46.08076 -0.78942 32012 ft 436 kts 318°
2026-04-25 11:43 46.10454 -0.81670 32390 ft 437 kts 318°
2026-04-25 11:43 46.12826 -0.84398 32744 ft 437 kts 317°
2026-04-25 11:44 46.15203 -0.87132 33159 ft 436 kts 317°
2026-04-25 11:44 46.17573 -0.89856 33607 ft 435 kts 317°
2026-04-25 11:44 46.19935 -0.92574 34025 ft 434 kts 317°
2026-04-25 11:44 46.22285 -0.95284 34405 ft 432 kts 317°
2026-04-25 11:45 46.24630 -0.97992 34727 ft 432 kts 317°
2026-04-25 11:45 46.26973 -1.00701 35039 ft 431 kts 317°
2026-04-25 11:45 46.29314 -1.03410 35338 ft 431 kts 317°
2026-04-25 11:45 46.31655 -1.06119 35621 ft 431 kts 318°
2026-04-25 11:46 46.33991 -1.08828 35910 ft 430 kts 318°
2026-04-25 11:46 46.36328 -1.11542 36121 ft 431 kts 318°
2026-04-25 11:46 46.41015 -1.17002 36149 ft 431 kts 318°
2026-04-25 11:47 46.45708 -1.22479 36158 ft 441 kts 318°
2026-04-25 11:47 46.50560 -1.28142 36158 ft 454 kts 318°
2026-04-25 11:48 46.55530 -1.33958 36164 ft 462 kts 318°
2026-04-25 11:48 46.60465 -1.39959 36160 ft 461 kts 311°
2026-04-25 11:49 46.64908 -1.46672 36168 ft 461 kts 311°
2026-04-25 11:49 46.69352 -1.53392 36167 ft 461 kts 311°
2026-04-25 11:50 46.73794 -1.60132 36161 ft 461 kts 311°
2026-04-25 11:50 46.78229 -1.66880 36150 ft 461 kts 311°
2026-04-25 11:51 46.82655 -1.73653 36143 ft 461 kts 311°
2026-04-25 11:51 46.87077 -1.80434 36141 ft 461 kts 311°
2026-04-25 11:52 46.91507 -1.87228 36132 ft 461 kts 311°
2026-04-25 11:52 46.95933 -1.94029 36137 ft 461 kts 311°
2026-04-25 11:53 46.99606 -1.99693 36145 ft 462 kts 311°
2026-04-25 11:53 47.04059 -2.06477 36156 ft 462 kts 313°
2026-04-25 11:54 47.08583 -2.13140 36145 ft 460 kts 313°
2026-04-25 11:55 47.15355 -2.23133 36141 ft 460 kts 313°
2026-04-25 11:55 47.19836 -2.29843 36141 ft 460 kts 313°
2026-04-25 11:56 47.24308 -2.36564 36144 ft 459 kts 313°
2026-04-25 11:56 47.28780 -2.43286 36145 ft 459 kts 313°
2026-04-25 11:57 47.33247 -2.50005 36149 ft 458 kts 313°
2026-04-25 11:57 47.37660 -2.56677 36151 ft 453 kts 313°
2026-04-25 11:58 47.42058 -2.63326 36159 ft 451 kts 313°
2026-04-25 11:58 47.46436 -2.69955 36159 ft 451 kts 313°
2026-04-25 11:59 47.50810 -2.76607 36161 ft 451 kts 313°
2026-04-25 11:59 47.55182 -2.83256 36155 ft 451 kts 315°
2026-04-25 12:00 47.60349 -2.88475 36157 ft 453 kts 335°
2026-04-25 12:00 47.63337 -2.89981 36161 ft 455 kts 344°
2026-04-25 12:01 47.72563 -2.93416 36155 ft 456 kts 344°
2026-04-25 12:01 47.78711 -2.95716 36154 ft 455 kts 344°
2026-04-25 12:02 47.87919 -2.99173 36152 ft 455 kts 344°
2026-04-25 12:02 47.94060 -3.01492 36152 ft 455 kts 344°
2026-04-25 12:03 48.00203 -3.03808 36152 ft 455 kts 344°
2026-04-25 12:03 48.06348 -3.06126 36152 ft 456 kts 344°
2026-04-25 12:04 48.12501 -3.08451 36152 ft 456 kts 344°
2026-04-25 12:04 48.18645 -3.10796 36156 ft 456 kts 344°
2026-04-25 12:05 48.24751 -3.13131 36154 ft 456 kts 344°
2026-04-25 12:05 48.30900 -3.15491 36152 ft 456 kts 344°
2026-04-25 12:06 48.37051 -3.17837 36154 ft 456 kts 344°
2026-04-25 12:06 48.43245 -3.20207 36154 ft 457 kts 344°
2026-04-25 12:07 48.49407 -3.22584 36161 ft 457 kts 343°
2026-04-25 12:07 48.55564 -3.24967 36160 ft 457 kts 343°
2026-04-25 12:08 48.61686 -3.27342 36167 ft 457 kts 343°
2026-04-25 12:08 48.67851 -3.29730 36163 ft 458 kts 343°
2026-04-25 12:09 48.74018 -3.32129 36163 ft 458 kts 343°
2026-04-25 12:09 48.80188 -3.34543 36166 ft 458 kts 343°
2026-04-25 12:10 48.86357 -3.36956 36166 ft 458 kts 343°
2026-04-25 12:10 48.92530 -3.39369 36169 ft 458 kts 343°
2026-04-25 12:11 48.98690 -3.41793 36170 ft 458 kts 343°
2026-04-25 12:11 49.04866 -3.44224 36183 ft 458 kts 343°
2026-04-25 12:12 49.09997 -3.46245 36172 ft 458 kts 343°
2026-04-25 12:12 49.17209 -3.49100 36183 ft 458 kts 343°
2026-04-25 12:13 49.23484 -3.50765 36185 ft 462 kts 359°
2026-04-25 12:13 49.29920 -3.50468 36183 ft 463 kts 360°
2026-04-25 12:14 49.36369 -3.50152 36182 ft 464 kts 360°
2026-04-25 12:14 49.42817 -3.49830 36189 ft 464 kts 360°
2026-04-25 12:15 49.49268 -3.49510 36192 ft 464 kts 359°
2026-04-25 12:15 49.55719 -3.49193 36189 ft 464 kts 359°
2026-04-25 12:16 49.62175 -3.48876 36194 ft 464 kts 359°
2026-04-25 12:16 49.68632 -3.48565 36195 ft 464 kts 359°
2026-04-25 12:17 49.75096 -3.48252 36195 ft 465 kts 359°
2026-04-25 12:17 49.81561 -3.47927 36196 ft 465 kts 359°
2026-04-25 12:18 49.88033 -3.47606 36201 ft 465 kts 359°
2026-04-25 12:18 49.94503 -3.47288 36207 ft 466 kts 359°
2026-04-25 12:19 50.04220 -3.46803 36209 ft 466 kts 359°
2026-04-25 12:20 50.10701 -3.46474 36212 ft 466 kts 359°
2026-04-25 12:20 50.17140 -3.46163 36212 ft 466 kts 359°
2026-04-25 12:21 50.23633 -3.45841 36215 ft 467 kts 359°
2026-04-25 12:21 50.30165 -3.45505 36221 ft 467 kts 359°
2026-04-25 12:22 50.36656 -3.45172 36220 ft 467 kts 359°
2026-04-25 12:22 50.43109 -3.44844 36219 ft 467 kts 359°
2026-04-25 12:23 50.49655 -3.44507 36221 ft 467 kts 359°
2026-04-25 12:23 50.56154 -3.44174 36222 ft 467 kts 359°
2026-04-25 12:24 50.62612 -3.43845 36219 ft 468 kts 359°
2026-04-25 12:24 50.69123 -3.43519 36219 ft 468 kts 359°
2026-04-25 12:25 50.75632 -3.43184 36219 ft 468 kts 359°
2026-04-25 12:25 50.82145 -3.42846 36219 ft 468 kts 359°
2026-04-25 12:26 50.88662 -3.42514 36219 ft 468 kts 359°
2026-04-25 12:26 50.95165 -3.42173 36216 ft 469 kts 359°
2026-04-25 12:27 51.01694 -3.41838 36213 ft 468 kts 359°
2026-04-25 12:27 51.08207 -3.41505 36212 ft 468 kts 359°
2026-04-25 12:28 51.14723 -3.41160 36218 ft 469 kts 359°
2026-04-25 12:28 51.21241 -3.40814 36217 ft 468 kts 359°
2026-04-25 12:29 51.27752 -3.40469 36216 ft 468 kts 359°
2026-04-25 12:29 51.34267 -3.40137 36218 ft 466 kts 359°
2026-04-25 12:29 51.37466 -3.39961 36216 ft 453 kts 359°
2026-04-25 12:30 51.40579 -3.39787 36219 ft 445 kts 359°
2026-04-25 12:30 51.46746 -3.39453 36220 ft 442 kts 359°
2026-04-25 12:30 51.49819 -3.39291 35891 ft 441 kts 359°
2026-04-25 12:31 51.52880 -3.39130 35453 ft 439 kts 359°
2026-04-25 12:31 51.55916 -3.38967 35031 ft 436 kts 359°
2026-04-25 12:31 51.58936 -3.38799 34625 ft 432 kts 359°
2026-04-25 12:31 51.61932 -3.38635 34227 ft 429 kts 358°
2026-04-25 12:32 51.64898 -3.38479 33778 ft 425 kts 358°
2026-04-25 12:32 51.67844 -3.38327 33298 ft 422 kts 359°
2026-04-25 12:32 51.70771 -3.38175 32839 ft 419 kts 358°
2026-04-25 12:32 51.73668 -3.38023 32394 ft 416 kts 358°
2026-04-25 12:33 51.76550 -3.37865 31981 ft 412 kts 358°
2026-04-25 12:33 51.79406 -3.37707 31548 ft 409 kts 358°
2026-04-25 12:33 51.82245 -3.37552 31116 ft 407 kts 358°
2026-04-25 12:33 51.85066 -3.37403 30745 ft 403 kts 358°
2026-04-25 12:34 51.87847 -3.37253 30367 ft 399 kts 358°
2026-04-25 12:34 51.90619 -3.37104 29892 ft 397 kts 358°
2026-04-25 12:34 51.93361 -3.36957 29481 ft 393 kts 358°
2026-04-25 12:34 51.94251 -3.36910 29347 ft 392 kts 358°
2026-04-25 12:35 51.98784 -3.36670 28667 ft 387 kts 358°
2026-04-25 12:35 52.01462 -3.36529 28280 ft 384 kts 358°
2026-04-25 12:35 52.04126 -3.36384 27885 ft 381 kts 359°
2026-04-25 12:35 52.06767 -3.36241 27495 ft 379 kts 359°
2026-04-25 12:36 52.09387 -3.36098 27109 ft 376 kts 359°
2026-04-25 12:36 52.11995 -3.35953 26722 ft 373 kts 359°
2026-04-25 12:36 52.14579 -3.35807 26341 ft 371 kts 359°
2026-04-25 12:36 52.17146 -3.35661 25951 ft 368 kts 359°
2026-04-25 12:37 52.19706 -3.35517 25543 ft 367 kts 359°
2026-04-25 12:37 52.22213 -3.35379 25164 ft 365 kts 359°
2026-04-25 12:37 52.23923 -3.35288 24895 ft 364 kts 359°
2026-04-25 12:37 52.27270 -3.35110 24352 ft 362 kts 359°
2026-04-25 12:38 52.28963 -3.35018 24070 ft 361 kts 359°
2026-04-25 12:38 52.32292 -3.34835 23471 ft 360 kts 359°
2026-04-25 12:38 52.34785 -3.34695 23050 ft 357 kts 359°
2026-04-25 12:38 52.37264 -3.34556 22628 ft 355 kts 359°
2026-04-25 12:39 52.38926 -3.34463 22347 ft 353 kts 359°
2026-04-25 12:39 52.41372 -3.34327 21934 ft 351 kts 359°
2026-04-25 12:39 52.43806 -3.34192 21521 ft 349 kts 359°
2026-04-25 12:39 52.46196 -3.34060 21113 ft 347 kts 359°
2026-04-25 12:40 52.48640 -3.33925 20699 ft 346 kts 360°
2026-04-25 12:40 52.51040 -3.33795 20278 ft 345 kts 360°
2026-04-25 12:40 52.53403 -3.33669 19871 ft 344 kts 360°
2026-04-25 12:40 52.55790 -3.33543 19457 ft 343 kts 360°
2026-04-25 12:41 52.58170 -3.33413 19052 ft 342 kts
2026-04-25 12:41 52.60545 -3.33280 18641 ft 341 kts
2026-04-25 12:41 52.62912 -3.32933 18190 ft 342 kts 10°
2026-04-25 12:41 52.65195 -3.31817 17687 ft 344 kts 19°
2026-04-25 12:42 52.67442 -3.30451 17185 ft 344 kts 19°
2026-04-25 12:42 52.68965 -3.29535 16841 ft 344 kts 19°
2026-04-25 12:42 52.71952 -3.27757 16174 ft 345 kts 18°
2026-04-25 12:42 52.74213 -3.26416 15658 ft 346 kts 19°
2026-04-25 12:43 52.76479 -3.25069 15169 ft 346 kts 19°
2026-04-25 12:43 52.78730 -3.23725 14745 ft 340 kts 19°
2026-04-25 12:43 52.83047 -3.21138 13848 ft 317 kts 19°
2026-04-25 12:44 52.85104 -3.19901 13273 ft 312 kts 19°
2026-04-25 12:44 52.87126 -3.18684 12712 ft 307 kts 19°
2026-04-25 12:44 52.91222 -3.17233 11652 ft 298 kts
2026-04-25 12:45 52.93293 -3.17084 11224 ft 298 kts
2026-04-25 12:45 52.95346 -3.16928 10767 ft 294 kts
2026-04-25 12:45 52.99406 -3.16611 9910 ft 290 kts
2026-04-25 12:46 53.01413 -3.16449 9473 ft 288 kts
2026-04-25 12:46 53.03409 -3.16287 9050 ft 286 kts
2026-04-25 12:46 53.05396 -3.16128 8635 ft 287 kts
2026-04-25 12:46 53.07396 -3.15971 8234 ft 288 kts
2026-04-25 12:47 53.09393 -3.15814 7901 ft 287 kts
2026-04-25 12:47 53.11368 -3.15660 7587 ft 278 kts
2026-04-25 12:47 53.13243 -3.15509 7408 ft 261 kts
2026-04-25 12:47 53.14928 -3.14759 7233 ft 247 kts 30°
2026-04-25 12:48 53.16096 -3.12798 7058 ft 235 kts 63°
2026-04-25 12:48 53.16529 -3.10264 6882 ft 223 kts 82°
2026-04-25 12:48 53.16700 -3.07729 6731 ft 220 kts 84°
2026-04-25 12:48 53.16834 -3.05217 6564 ft 217 kts 85°
2026-04-25 12:49 53.16965 -3.02744 6382 ft 214 kts 85°
2026-04-25 12:49 53.17099 -3.00248 6192 ft 213 kts 84°
2026-04-25 12:49 53.17285 -2.97807 6018 ft 212 kts 82°
2026-04-25 12:49 53.17485 -2.95372 5842 ft 212 kts 82°
2026-04-25 12:50 53.17684 -2.92946 5622 ft 211 kts 82°
2026-04-25 12:50 53.17882 -2.90518 5369 ft 210 kts 82°
2026-04-25 12:50 53.18078 -2.88109 5115 ft 210 kts 82°
2026-04-25 12:50 53.18272 -2.85707 4878 ft 209 kts 82°
2026-04-25 12:51 53.18464 -2.83310 4650 ft 208 kts 82°
2026-04-25 12:51 53.18652 -2.80960 4413 ft 207 kts 82°
2026-04-25 12:51 53.18840 -2.78592 4161 ft 206 kts 82°
2026-04-25 12:51 53.19023 -2.76272 3921 ft 205 kts 82°
2026-04-25 12:52 53.19207 -2.73915 3678 ft 204 kts 82°
2026-04-25 12:52 53.19389 -2.71578 3443 ft 203 kts 82°
2026-04-25 12:52 53.19568 -2.69251 3233 ft 202 kts 83°
2026-04-25 12:52 53.19743 -2.66946 2990 ft 200 kts 82°
2026-04-25 12:53 53.20133 -2.64752 2778 ft 197 kts 55°
2026-04-25 12:53 53.21035 -2.63054 2523 ft 196 kts 42°
2026-04-25 12:53 53.22073 -2.61585 2269 ft 195 kts 39°
2026-04-25 12:53 53.23130 -2.60168 2067 ft 194 kts 38°
2026-04-25 12:54 53.24189 -2.58760 2007 ft 195 kts 38°
2026-04-25 12:54 53.25254 -2.57348 2007 ft 195 kts 38°
2026-04-25 12:54 53.26455 -2.56357 2006 ft 195 kts
2026-04-25 12:54 53.27799 -2.56560 2014 ft 195 kts 348°
2026-04-25 12:55 53.29112 -2.57118 2010 ft 195 kts 345°
2026-04-25 12:55 53.29980 -2.57521 2008 ft 196 kts 344°
2026-04-25 12:55 53.31700 -2.58335 2022 ft 183 kts 343°
2026-04-25 12:55 53.32792 -2.59214 2004 ft 168 kts 324°
2026-04-25 12:56 53.33587 -2.60518 1996 ft 156 kts 306°
2026-04-25 12:56 53.34090 -2.62094 2009 ft 149 kts 289°
2026-04-25 12:56 53.34287 -2.63767 2019 ft 146 kts 273°
2026-04-25 12:56 53.34237 -2.65455 2015 ft 145 kts 266°
2026-04-25 12:57 53.34164 -2.67138 1936 ft 145 kts 266°
2026-04-25 12:57 53.34090 -2.68816 1788 ft 144 kts 266°
2026-04-25 12:57 53.34015 -2.70482 1618 ft 143 kts 266°
2026-04-25 12:57 53.33940 -2.72142 1430 ft 143 kts 266°
2026-04-25 12:58 53.33866 -2.73795 1235 ft 142 kts 266°
2026-04-25 12:58 53.33794 -2.75445 1038 ft 141 kts 266°
2026-04-25 12:58 53.33716 -2.77085 846 ft 141 kts 266°
2026-04-25 12:58 53.33644 -2.78720 660 ft 141 kts 266°
2026-04-25 12:59 53.33574 -2.80354 481 ft 141 kts 266°
2026-04-25 12:59 53.33501 -2.81975 281 ft 139 kts 265°
2026-04-25 12:59 53.33432 -2.83509 106 ft 139 kts 266°
2026-04-25 12:59 53.33367 -2.84936 69 ft 94 kts 265°
2026-04-25 13:00 53.33335 -2.85590 83 ft 37 kts 265°
2026-04-25 13:00 53.33324 -2.85851 75 ft 33 kts 266°
2026-04-25 13:00 53.33309 -2.86325 66 ft 17 kts 278°
2026-04-25 13:00 53.33397 -2.86423 83 ft 15 kts 356°
2026-04-25 13:01 53.33454 -2.86400 88 ft 8 kts 44°
2026-04-25 13:01 53.33494 -2.86315 85 ft 11 kts 17°
2026-04-25 13:01 53.33571 -2.86288 89 ft 12 kts 49°
2026-04-25 13:01 53.33588 -2.86129 85 ft 15 kts 85°
2026-04-25 13:02 53.33596 -2.85958 87 ft 13 kts 86°
2026-04-25 13:02 53.33600 -2.85809 89 ft 14 kts 87°
2026-04-25 13:02 53.33606 -2.85667 85 ft 11 kts 85°
2026-04-25 13:02 53.33599 -2.85598 85 ft 4 kts 146°
2026-04-25 13:03 53.33572 -2.85591 85 ft 2 kts 174°
2026-04-25 13:03 53.33564 -2.85590 85 ft 1 kts 175°
2026-04-25 13:03 53.33561 -2.85589 85 ft 0 kts 175°